EHI
0 2 6 8 6 4 3 1 0 0 0 0 0 0 0 0 0 0 0 1 1 1 1 1 3 2 1 0 0 0 0 0 0 0 0 0 0 0 0 0 0 0 0
0 2 6 8 7 5 3 2 1 1 1 0 0 0 0 0 0 0 0 0 1 1 1 2 3 2 1 0 0 0 0 0 0 0 0 0 0 0 0 0 0 0 0
0 2 5 8 8 6 4 3 2 2 2 1 0 0 0 0 0 0 0 0 0 0 1 2 2 1 0 0 0 0 0 0 0 0 0 0 0 0 0 0 0 0 0
1 2 4 7 8 6 4 3 3 4 3 2 0 0 0 0 0 0 0 0 0 0 0 1 1 0 0 0 0 0 0 0 0 0 0 0 0 0 0 0 0 0 0
2 3 4 6 8 7 5 4 4 5 5 2 1 1 1 1 0 0 0 0 0 0 0 0 0 0 0 0 0 0 0 0 0 0 0 0 0 0 0 0 0 0 0
2 3 4 5 7 8 8 6 5 5 5 3 2 3 3 2 1 1 1 0 0 0 0 0 0 0 0 0 0 0 0 0 0 0 0 0 0 0 0 0 0 0 0
1 2 3 4 6 8 8 7 6 4 4 3 3 4 3 2 1 2 1 0 0 0 0 0 0 0 0 0 0 0 0 0 0 0 0 0 0 0 0 0 0 0 0
1 2 3 3 4 6 6 5 5 4 3 3 3 3 3 3 2 2 1 0 0 0 0 0 0 0 0 0 0 0 0 0 0 0 0 0 0 0 0 0 0 0 0
1 2 3 3 3 4 4 4 4 3 3 3 4 4 4 3 2 1 1 1 1 0 0 0 0 0 0 0 0 0 0 0 0 0 0 0 0 0 0 0 0 0 0
0 1 3 3 3 3 3 3 3 3 3 4 5 4 3 2 1 0 1 2 1 0 0 0 0 0 0 0 0 0 0 0 0 0 0 0 0 0 0 0 0 0 0
0 1 3 4 3 3 3 3 3 3 4 4 4 3 1 0 0 0 1 1 1 0 0 0 0 0 0 0 0 0 0 0 0 0 0 0 0 0 0 0 0 0 0
0 1 3 4 4 3 3 3 3 4 3 3 2 1 0 0 0 0 0 0 0 0 0 0 0 0 0 0 0 0 0 0 0 0 0 0 0 0 0 0 0 0 0
1 2 3 4 3 3 3 3 4 4 3 1 0 0 0 0 0 0 0 0 0 0 0 0 0 0 0 0 0 0 0 0 0 0 0 0 0 0 0 0 0 0 0
2 3 3 3 3 3 4 3 3 4 3 1 0 0 0 0 0 0 0 0 0 0 0 0 0 0 0 0 0 0 0 0 0 0 0 0 0 0 0 0 0 0 0
2 3 3 2 3 4 5 4 3 3 2 1 0 0 0 0 0 0 0 0 0 0 0 0 0 0 0 0 0 0 0 0 0 0 0 0 0 0 0 0 0 0 0
1 2 3 2 2 4 5 4 3 3 1 1 0 0 0 0 0 0 0 0 0 0 0 0 0 0 0 0 0 0 0 0 0 0 0 0 0 0 0 0 0 0 0
1 2 2 1 2 4 4 3 3 2 1 0 0 0 0 0 0 0 0 0 0 0 0 0 0 0 0 0 0 0 0 0 0 0 0 0 0 0 0 0 0 0 0
0 1 1 1 1 2 3 3 2 1 0 0 0 0 0 0 0 0 0 0 0 0 0 0 0 0 0 0 0 0 0 0 0 0 0 0 0 0 0 0 0 0 0
0 0 1 1 1 1 3 3 1 0 0 0 0 0 0 0 0 0 0 0 0 0 0 0 0 0 0 0 0 0 0 0 0 0 0 0 0 0 0 0 0 0 0
0 0 0 1 1 1 2 2 1 0 0 0 0 0 0 0 0 0 0 0 0 0 0 0 0 0 0 0 0 0 0 0 0 0 0 0 0 0 0 0 0 0 0
0 0 0 1 1 1 1 1 0 0 0 0 0 0 0 0 0 0 0 0 0 0 0 0 0 0 0 0 0 0 0 0 0 0 0 0 0 0 0 0 0 0 0
0 0 0 0 0 0 0 0 0 0 0 0 0 0 0 0 0 0 0 0 0 0 0 0 0 0 0 0 0 0 0 0 0 0 0 0 0 0 0 0 0 0 0
0 0 0 0 0 0 0 0 0 0 0 0 0 0 0 0 0 0 0 0 0 0 0 0 0 0 0 0 0 0 0 0 0 0 0 0 0 0 0 0 0 0 0
0 0 0 0 0 0 0 0 0 0 0 0 0 0 0 0 0 0 0 0 0 0 0 0 0 0 0 0 0 0 0 0 0 0 0 0 0 0 0 0 0 0 0
0 0 0 0 0 0 0 0 0 0 0 0 0 0 0 0 0 0 0 0 0 0 0 0 0 0 0 0 0 0 0 0 0 0 0 0 0 0 0 0 0 0 0
0 0 0 0 0 0 0 0 0 0 0 0 0 0 0 0 0 0 0 0 0 0 0 0 0 0 0 0 0 0 0 0 0 0 0 0 0 0 0 0 0 0 0
Wind_Speed
3 3 2 3 5 7 7 7 8 9 9 9 9 9 9 9 10 10 10 9 9 10 11 12 13 14 14 15 15 16 16 16 16 16 16 15 16 16 16 14 13 14 18
4 4 3 4 6 7 7 8 8 9 9 9 9 9 9 9 9 10 11 10 10 11 12 13 13 14 15 15 15 15 16 15 15 14 12 13 14 15 16 15 14 13 17
4 5 5 5 6 7 7 8 9 9 9 9 9 9 9 9 9 10 10 10 12 12 13 13 14 14 14 15 15 15 15 14 13 10 9 11 12 14 16 15 16 16 17
4 5 5 5 6 7 7 8 8 9 9 9 9 9 9 9 10 10 10 11 12 12 12 13 14 14 14 14 14 14 14 13 10 7 8 10 11 14 15 15 15 16 16
4 4 5 5 6 7 8 8 8 8 8 8 8 8 9 9 10 10 10 11 11 12 12 13 13 13 13 13 14 14 13 12 8 8 10 10 10 13 14 15 15 15 15
5 4 5 5 5 7 8 8 8 8 8 8 8 8 9 9 10 10 10 10 11 11 11 12 12 13 13 13 13 13 12 8 8 9 9 9 9 13 14 14 14 14 14
5 4 5 4 5 7 7 7 7 7 8 8 8 8 8 9 10 10 10 10 10 10 10 11 12 12 13 12 12 12 10 7 8 9 8 9 10 13 13 14 14 14 14
4 4 4 4 4 5 7 7 7 7 7 7 7 8 8 9 10 10 10 10 10 10 10 10 10 12 12 12 12 11 9 6 8 8 8 9 10 12 13 13 13 13 13
4 3 3 3 4 4 5 6 6 6 7 7 7 7 8 8 9 9 9 9 9 10 10 10 10 11 11 11 11 10 9 6 7 6 7 7 9 11 12 12 13 13 13
3 3 2 2 3 3 4 5 5 6 6 6 7 7 7 8 8 8 8 9 9 9 10 10 10 10 11 11 10 9 6 4 7 7 5 7 10 11 11 12 12 12 12
2 2 1 1 2 2 3 4 5 5 5 6 6 7 6 6 6 6 8 8 8 9 9 9 10 9 10 9 9 6 3 4 6 5 5 7 9 10 11 11 11 11 11
1 1 1 1 1 2 2 3 3 3 4 4 4 5 4 4 4 5 7 8 8 8 9 9 9 7 6 5 6 4 3 5 5 5 5 7 8 9 10 10 11 11 11
2 1 1 1 1 2 1 2 2 2 2 3 4 4 4 4 4 4 4 4 5 6 5 6 5 3 3 4 3 4 4 4 3 4 5 6 7 8 9 10 10 10 10
3 2 2 2 1 2 2 2 2 2 2 2 3 4 3 3 3 3 3 3 3 2 3 3 3 4 4 4 4 4 4 3 3 3 5 6 6 7 8 9 9 9 9
3 2 2 2 2 2 2 2 2 2 2 2 2 3 3 3 3 3 2 2 3 2 3 3 3 4 4 4 3 4 4 4 4 4 3 5 5 6 7 8 8 8 8
3 2 1 2 2 2 2 2 2 2 2 2 2 3 4 3 3 3 3 2 2 2 2 3 3 3 3 3 4 4 4 4 3 3 3 4 5 5 6 6 7 7 7
3 3 2 2 2 2 2 2 2 2 3 3 3 3 3 3 4 4 3 3 2 2 3 3 4 3 3 3 4 3 3 3 3 3 3 2 3 5 5 5 5 5 5
3 3 2 1 2 3 2 2 2 2 3 3 2 3 3 2 3 3 3 3 3 2 2 3 3 3 3 3 2 2 2 2 3 2 2 2 2 2 3 4 4 4 4
4 3 3 2 2 3 3 2 2 2 2 2 2 2 2 3 2 2 3 3 3 3 3 3 3 3 3 3 2 2 2 2 2 2 2 2 2 2 1 3 3 3 2
3 3 3 3 2 3 3 2 2 2 2 2 2 3 3 3 3 2 3 4 4 3 3 3 4 3 2 3 2 2 2 1 1 1 1 1 1 1 1 1 1 2 2
3 3 3 3 3 3 3 3 3 3 3 2 2 3 3 3 3 3 2 3 3 3 3 4 4 4 3 3 2 2 1 1 1 1 1 1 1 1 1 1 1 1 1
3 3 3 4 3 4 3 3 3 3 3 3 2 3 3 3 3 3 3 3 3 3 4 4 5 3 2 3 2 3 2 3 2 1 1 1 1 2 1 1 1 1 1
4 4 4 4 4 4 4 3 3 3 3 3 3 3 3 3 4 4 4 3 3 4 4 5 5 5 4 3 3 2 3 4 2 2 3 2 2 2 2 2 2 1 1
4 4 4 4 4 4 5 4 5 4 3 4 3 3 3 4 3 3 4 3 3 3 4 4 5 4 6 5 3 2 2 1 3 3 3 3 3 3 3 2 3 2 2
4 4 4 3 3 3 4 5 6 5 3 3 4 4 4 4 4 4 4 3 3 3 4 4 4 4 4 5 4 3 2 2 3 3 4 4 3 4 4 4 3 3 3
4 3 3 4 4 3 4 5 6 6 5 4 4 4 4 3 3 4 4 4 4 3 4 5 5 5 5 5 4 4 3 3 3 4 4 4 4 4 5 4 4 4 3
Wind_Direction
154 151 131 132 126 119 112 105 107 105 100 97 93 90 87 83 78 75 77 80 82 90 98 99 97 95 92 90 89 88 87 85 84 83 82 82 84 85 83 80 84 83 82
155 156 140 135 129 125 116 110 109 107 103 98 97 93 89 86 81 77 75 73 81 91 98 96 94 94 93 91 89 89 89 87 86 85 87 87 83 84 82 76 75 84 83
147 151 150 130 129 128 119 113 111 107 104 99 97 94 90 87 85 81 79 75 79 89 95 95 95 93 92 91 90 89 90 89 87 86 95 95 90 86 86 84 84 86 85
146 150 145 127 129 130 124 118 114 111 107 101 98 95 91 89 86 84 83 80 81 85 92 93 94 95 94 93 92 90 89 87 84 89 93 92 93 90 90 89 88 88 88
144 146 126 122 128 131 126 121 117 113 110 105 101 97 95 92 87 85 84 83 82 84 89 92 94 97 97 96 93 91 88 85 83 90 89 90 91 91 92 92 91 90 90
146 144 122 112 125 132 127 124 121 118 114 110 107 103 100 97 92 87 85 86 86 89 90 96 97 99 99 99 96 94 91 86 97 91 90 90 92 93 94 93 93 91 90
142 137 128 115 125 130 129 127 124 120 117 116 114 110 105 100 96 91 88 90 92 93 96 96 102 103 102 100 98 95 88 77 90 91 91 90 90 93 95 93 92 92 91
126 122 122 111 108 129 135 132 128 125 120 117 114 111 108 105 101 97 93 93 95 97 98 96 100 106 105 101 97 93 83 81 93 91 91 91 88 93 95 94 93 93 92
116 110 107 128 130 119 130 129 125 127 122 118 113 108 102 100 102 101 98 96 95 95 96 95 97 105 105 102 98 90 78 66 93 92 92 90 89 95 96 96 94 93 92
104 105 102 122 139 146 140 122 122 124 124 120 115 109 104 103 104 100 99 95 94 93 94 95 95 106 105 101 97 90 85 95 94 93 91 93 94 97 96 96 94 93 92
91 89 95 109 126 142 139 129 126 126 123 126 123 115 118 122 115 109 95 89 89 89 90 94 93 102 104 101 95 93 105 102 99 92 90 91 100 102 101 99 97 95 94
148 127 129 144 134 138 141 142 149 150 146 146 140 135 131 122 112 109 94 87 87 88 90 90 92 103 116 116 108 110 103 99 98 97 92 87 100 105 103 102 102 99 98
183 179 195 188 169 147 145 148 155 160 153 150 141 134 127 119 119 115 110 102 99 94 92 97 102 92 104 109 115 111 104 99 96 98 95 87 96 106 107 106 104 102 101
195 195 199 202 190 175 155 157 163 155 156 144 145 140 135 127 127 129 122 117 109 101 101 94 93 98 97 107 111 111 111 106 103 101 89 78 90 101 109 110 109 106 103
214 214 219 209 193 182 167 153 156 157 158 145 142 146 142 138 137 134 124 125 118 113 114 109 105 105 101 106 110 111 107 105 106 106 97 75 82 95 107 111 112 110 107
230 238 230 205 197 185 176 167 163 159 152 146 145 151 154 149 145 143 137 131 125 125 123 122 117 112 106 110 112 109 110 109 105 109 110 95 77 86 95 106 114 114 111
231 238 241 219 195 192 188 184 174 166 166 155 149 150 149 157 154 150 149 143 137 134 134 130 123 116 113 111 115 112 111 107 109 105 102 107 103 85 82 92 106 112 115
229 233 230 229 211 196 188 184 177 169 162 147 148 151 142 142 161 158 157 150 147 147 149 142 137 131 129 123 120 119 115 114 114 112 102 97 98 102 92 76 89 96 107
226 226 221 211 223 200 184 169 158 158 150 142 141 137 146 144 153 165 163 153 154 156 155 147 145 144 142 133 120 117 115 116 124 121 114 101 91 89 100 84 81 81 79
230 223 215 210 221 206 179 167 155 154 154 154 152 146 152 151 155 159 157 157 159 158 155 156 148 140 144 139 122 107 102 110 119 124 135 123 105 96 91 96 115 99 81
233 227 214 213 217 200 184 182 179 185 180 173 161 154 158 154 156 158 157 158 164 161 161 160 150 146 148 152 146 132 120 130 143 149 171 158 145 138 116 110 124 153 145
228 227 219 218 220 207 200 193 191 187 184 176 166 161 161 160 163 167 163 169 174 160 161 166 163 162 162 186 181 166 173 184 181 208 206 201 187 170 163 164 177 190 200
230 229 224 223 218 210 196 182 168 166 166 176 182 178 176 173 173 172 173 174 185 177 173 178 180 181 178 188 201 207 196 196 170 189 207 216 214 206 201 192 201 200 224
230 226 226 219 207 209 192 189 183 189 196 194 183 181 178 182 179 181 177 184 187 186 184 187 193 191 184 188 198 237 264 188 185 180 197 209 220 223 218 212 219 214 221
226 222 217 213 200 203 200 194 194 199 200 180 177 179 183 186 185 185 182 186 197 199 192 196 198 197 196 195 196 194 198 216 223 198 198 200 215 223 223 222 222 218 217
218 216 213 209 204 202 207 199 202 202 194 186 187 185 188 189 194 193 191 194 200 205 204 204 202 202 204 203 202 199 198 206 205 207 209 209 219 217 221 220 221 218 215